Location: Oberkirch
(48.5323°N, 8.0787°E)
Time: 02:01:27
(UTC+00:00)

Gbstr 26 Del rocket - Pass Details

Date: 08 November 2025
Orbit: 489 x 1219 km, 51.8° (Epoch: 13 December)

Event Time Altitude Azimuth Distance (km) Brightness Sun altitude
Exits shadow 03:58:38 44° 194° (SSW) 980 3.9 -24.4°
Maximum altitude 03:59:51 56° 146° (SE) 875 3.9 -24.2°
Drops below altitude 10° 04:05:31 10° 69° (ENE) 2,514 7.1 -23.2°
Sets 04:08:22 0° 66° (ENE) 3,584 8.1 -22.8°
